FW6321 Weather Reports


time (UTC)temp
C
wind
direction
speed
KPH
gust
KPH
rain 1hr
cm
rain 24hr
cm
rain mn
cm
humidity
%
barometer
mb
20260831212431 18 233 8.0 17.7 0.00 0.15 0.15 91 1016.7
20260831211933 18 227 8.0 17.7 0.00 0.15 0.15 91 1016.6
20260831211907 18 201 8.0 17.7 0.00 0.15 0.15 92 1016.6
20260831210932 18 189 8.0 17.7 0.00 0.15 0.15 91 1016.6
20260831210432 18 238 6.4 14.5 0.00 0.15 0.15 91 1016.5
20260831205934 18 214 6.4 14.5 0.00 0.15 0.15 91 1016.4
20260831205913 18 233 6.4 12.9 0.00 0.15 0.15 90 1016.4
20260831204930 18 213 6.4 20.9 0.00 0.15 0.15 90 1016.4
20260831204431 18 218 8.0 20.9 0.00 0.15 0.15 89 1016.5
20260831204412 18 210 8.0 19.3 0.00 0.15 0.15 89 1016.4
20260831203434 18 217 8.0 17.7 0.00 0.15 0.15 89 1016.3
20260831202931 18 229 8.0 17.7 0.00 0.15 0.15 88 1016.3
20260831202430 18 215 8.0 17.7 0.00 0.15 0.15 88 1016.3
20260831201933 18 237 8.0 16.1 0.00 0.15 0.15 88 1016.3
20260831201433 18 248 9.7 19.3 0.00 0.15 0.15 88 1016.3
20260831200931 18 206 9.7 19.3 0.00 0.15 0.15 87 1016.2
20260831200432 18 235 9.7 20.9 0.00 0.15 0.15 87 1016.2
20260831195932 18 220 11.3 20.9 0.00 0.15 0.15 87 1016.2
20260831195431 18 255 8.0 17.7 0.00 0.15 0.15 87 1016.1
20260831194933 18 233 8.0 20.9 0.00 0.15 0.15 87 1016.1
20260831194915 18 210 8.0 20.9 0.00 0.15 0.15 86 1015.9
20260831193933 18 204 6.4 16.1 0.00 0.15 0.15 86 1015.9
20260831193431 18 229 8.0 12.9 0.00 0.15 0.15 85 1015.8
20260831192932 18 236 8.0 16.1 0.00 0.15 0.15 84 1015.8
20260831192906 18 216 8.0 16.1 0.00 0.15 0.15 83 1015.8
20260831191930 18 229 8.0 14.5 0.00 0.15 0.15 83 1015.6
20260831191431 18 235 6.4 14.5 0.00 0.15 0.15 82 1015.6
20260831191417 18 181 6.4 16.1 0.00 0.15 0.15 82 1015.5
20260831190433 18 212 8.0 16.1 0.00 0.15 0.15 82 1015.4
20260831190418 18 242 8.0 16.1 0.00 0.15 0.15 81 1015.4
20260831185915 18 204 6.4 16.1 0.00 0.15 0.15 81 1015.4
20260831184931 18 205 6.4 12.9 0.00 0.15 0.15 81 1015.3
20260831184430 18 229 6.4 14.5 0.00 0.15 0.15 80 1015.3
20260831183932 18 210 6.4 14.5 0.00 0.15 0.15 80 1015.3
20260831183431 18 254 6.4 12.9 0.00 0.15 0.15 80 1015.2
20260831182931 18 225 8.0 19.3 0.00 0.15 0.15 80 1015.0
20260831182432 18 240 8.0 19.3 0.00 0.15 0.15 80 1015.1
20260831181932 18 241 8.0 17.7 0.00 0.15 0.15 79 1014.9
20260831181434 18 197 9.7 19.3 0.00 0.15 0.15 79 1014.8
20260831180932 18 243 11.3 20.9 0.00 0.15 0.15 79 1014.8
20260831180432 18 224 11.3 20.9 0.00 0.15 0.15 79 1014.6
20260831175931 19 240 11.3 22.5 0.00 0.15 0.15 79 1014.6
20260831175430 19 210 14.5 30.6 0.00 0.15 0.15 79 1014.5
20260831174931 19 230 12.9 30.6 0.00 0.15 0.15 79 1014.5
20260831174430 19 232 12.9 27.4 0.00 0.15 0.15 79 1014.5
20260831173932 19 204 14.5 27.4 0.00 0.15 0.15 79 1014.3
20260831173432 19 237 14.5 27.4 0.00 0.15 0.15 79 1014.2
20260831172933 19 255 16.1 27.4 0.00 0.15 0.15 80 1014.3
20260831172432 19 232 16.1 27.4 0.00 0.15 0.15 80 1014.2
20260831171933 19 245 14.5 24.1 0.00 0.15 0.15 81 1014.2
20260831171432 18 235 12.9 24.1 0.00 0.15 0.15 83 1014.0
20260831170933 18 229 12.9 24.1 0.03 0.15 0.15 84 1014.0
20260831170436 18 241 12.9 20.9 0.03 0.15 0.15 85 1013.8
20260831165932 18 233 9.7 22.5 0.03 0.15 0.15 86 1013.8
20260831165432 18 239 6.4 22.5 0.03 0.15 0.15 86 1013.7
20260831164928 18 253 6.4 14.5 0.03 0.15 0.15 86 1013.7
20260831164427 18 249 8.0 14.5 0.03 0.15 0.15 86 1013.8
20260831163928 18 248 8.0 19.3 0.03 0.15 0.15 86 1013.7
20260831163915 18 262 9.7 19.3 0.03 0.15 0.15 85 1013.7
20260831163407 18 212 11.3 22.5 0.03 0.15 0.15 84 1013.6
20260831162430 18 237 14.5 24.1 0.03 0.15 0.15 83 1013.5
20260831161931 18 233 16.1 29.0 0.03 0.15 0.15 82 1013.6
20260831161430 18 234 17.7 33.8 0.03 0.15 0.15 81 1013.6
20260831160930 19 252 19.3 43.5 0.00 0.15 0.15 79 1013.6
20260831160428 20 241 19.3 43.5 0.00 0.15 0.15 77 1013.4
20260831155931 20 231 19.3 40.2 0.00 0.15 0.15 75 1013.3
20260831155428 20 270 19.3 40.2 0.00 0.15 0.15 74 1013.2
20260831154931 20 231 19.3 40.2 0.00 0.15 0.15 74 1013.1
20260831154919 20 187 19.3 40.2 0.00 0.15 0.15 74 1013.1
20260831153929 20 247 17.7 32.2 0.00 0.15 0.15 75 1013.0
20260831153428 20 250 17.7 32.2 0.00 0.15 0.15 76 1012.9
20260831152928 20 216 19.3 38.6 0.00 0.15 0.15 77 1013.0
20260831152428 20 211 19.3 38.6 0.00 0.15 0.15 76 1012.9
20260831151929 20 234 17.7 37.0 0.00 0.15 0.15 76 1012.9
20260831151918 20 230 16.1 37.0 0.00 0.15 0.15 76 1012.8
20260831150926 20 252 19.3 40.2 0.00 0.15 0.15 76 1012.7
20260831150905 20 249 19.3 38.6 0.00 0.15 0.15 74 1012.6
20260831150630 20 265 19.3 40.2 0.00 0.15 0.15 75 1012.7
20260831145913 20 235 22.5 40.2 0.00 0.15 0.15 74 1012.6
20260831144923 20 249 22.5 40.2 0.00 0.15 0.15 75 1012.6
20260831144424 20 223 24.1 41.8 0.00 0.15 0.15 74 1012.5
20260831143924 20 243 24.1 41.8 0.00 0.15 0.15 73 1012.5
20260831143915 20 254 20.9 41.8 0.00 0.15 0.15 72 1012.3
20260831142923 20 208 19.3 33.8 0.00 0.15 0.15 75 1012.3
20260831142423 20 241 20.9 43.5 0.00 0.15 0.15 75 1012.2
20260831141921 20 214 22.5 43.5 0.00 0.15 0.15 74 1012.1
20260831141416 20 231 20.9 45.1 0.00 0.15 0.15 73 1012.0
20260831140913 20 206 19.3 45.1 0.00 0.15 0.15 71 1011.9
20260831140857 20 229 20.9 43.5 0.00 0.15 0.15 70 1011.8
20260831140356 20 275 20.9 43.5 0.00 0.15 0.15 69 1011.6
20260831135414 20 214 19.3 43.5 0.00 0.15 0.15 70 1011.4
20260831135346 20 216 22.5 46.7 0.00 0.15 0.15 70 1011.4
20260831134414 20 235 22.5 46.7 0.00 0.15 0.15 69 1011.4
20260831133911 20 229 17.7 41.8 0.00 0.15 0.15 69 1011.4
20260831133410 21 242 20.9 48.3 0.00 0.15 0.15 70 1011.4
20260831132910 20 233 25.7 48.3 0.00 0.15 0.15 70 1011.2
20260831132410 20 180 25.7 48.3 0.00 0.15 0.15 69 1011.3
20260831132358 20 239 24.1 46.7 0.00 0.15 0.15 70 1011.3
20260831131410 21 239 22.5 49.9 0.00 0.15 0.15 68 1011.1
20260831130908 21 229 20.9 49.9 0.00 0.15 0.15 70 1011.0
20260831130404 20 233 17.7 32.2 0.00 0.15 0.15 74 1011.0
20260831125906 19 216 20.9 38.6 0.00 0.15 0.15 76 1010.9
20260831125404 20 241 24.1 46.7 0.00 0.15 0.15 74 1010.9
20260831124909 19 247 24.1 46.7 0.00 0.15 0.15 74 1010.6
20260831124403 20 227 22.5 45.1 0.00 0.15 0.15 74 1010.7
20260831123904 20 235 22.5 45.1 0.00 0.15 0.15 74 1010.6
20260831123357 20 251 17.7 38.6 0.00 0.15 0.15 74 1010.5
20260831122853 20 212 17.7 43.5 0.00 0.15 0.15 73 1010.6
20260831122345 20 236 19.3 43.5 0.00 0.15 0.15 71 1010.4
20260831121838 21 236 19.3 40.2 0.00 0.15 0.15 71 1010.5
20260831121335 20 229 22.5 40.2 0.00 0.15 0.15 71 1010.3
20260831120833 20 228 22.5 40.2 0.00 0.15 0.15 70 1010.2
20260831120333 20 281 24.1 53.1 0.00 0.15 0.15 70 1010.3
20260831115833 20 227 25.7 53.1 0.00 0.15 0.15 71 1010.3
20260831115331 20 236 24.1 46.7 0.00 0.15 0.15 72 1010.2
20260831115318 19 214 19.3 40.2 0.00 0.15 0.15 74 1010.1
20260831114817 19 278 19.3 40.2 0.00 0.15 0.15 75 1010.0
20260831114321 20 92 17.7 33.8 0.00 0.15 0.15 77 1010.0
20260831113334 20 219 14.5 33.8 0.00 0.15 0.15 78 1009.9
20260831113316 20 241 14.5 32.2 0.00 0.15 0.15 80 1009.8
20260831113041 20 192 12.9 32.2 0.00 0.15 0.15 80 1009.9
20260831112315 20 188 14.5 30.6 0.00 0.15 0.15 79 1009.7
20260831111332 20 252 16.1 32.2 0.00 0.15 0.15 80 1009.7
20260831110832 19 237 16.1 32.2 0.00 0.15 0.15 81 1009.7
20260831110333 19 270 14.5 29.0 0.00 0.15 0.15 83 1009.7
20260831105830 18 220 16.1 46.7 0.00 0.15 0.15 84 1009.8
20260831105333 19 221 17.7 46.7 0.00 0.15 0.15 80 1009.8
20260831104833 20 197 16.1 41.8 0.00 0.15 0.15 75 1009.7
20260831104327 20 226 17.7 37.0 0.00 0.15 0.15 74 1009.7
20260831103827 20 230 17.7 40.2 0.00 0.15 0.15 74 1009.5
20260831103325 20 257 16.1 40.2 0.00 0.15 0.15 74 1009.5
20260831102827 20 237 16.1 40.2 0.00 0.15 0.15 77 1009.4
20260831102327 19 245 16.1 40.2 0.00 0.15 0.15 76 1009.3
20260831101828 19 219 14.5 33.8 0.00 0.15 0.15 76 1009.3
20260831101326 19 220 16.1 37.0 0.00 0.15 0.15 77 1009.3
20260831100827 19 204 17.7 37.0 0.00 0.15 0.15 76 1009.4
20260831100326 20 236 16.1 33.8 0.00 0.15 0.15 76 1009.3
20260831095825 20 264 14.5 32.2 0.00 0.15 0.15 76 1009.3
20260831095327 20 202 12.9 32.2 0.00 0.15 0.15 76 1009.1
20260831094825 20 231 16.1 30.6 0.00 0.15 0.15 77 1009.2
20260831094327 19 227 19.3 38.6 0.00 0.15 0.15 78 1009.2
20260831093826 19 245 20.9 38.6 0.00 0.15 0.15 78 1009.2
20260831093327 19 213 17.7 45.1 0.00 0.15 0.15 79 1009.3
20260831092826 19 210 16.1 45.1 0.00 0.15 0.15 80 1009.1
20260831092325 18 220 20.9 38.6 0.00 0.15 0.15 79 1009.2
20260831091827 18 206 20.9 48.3 0.00 0.15 0.15 80 1009.0
20260831091327 18 212 16.1 48.3 0.00 0.15 0.15 81 1009.0
20260831090825 18 239 16.1 37.0 0.00 0.15 0.15 82 1008.9
20260831090327 18 146 19.3 37.0 0.00 0.15 0.15 82 1009.0
20260831085824 18 227 20.9 38.6 0.00 0.15 0.15 82 1008.9
20260831085326 18 214 17.7 43.5 0.00 0.15 0.15 83 1008.8
20260831084825 18 175 16.1 43.5 0.00 0.15 0.15 85 1008.9
20260831084324 18 165 17.7 38.6 0.00 0.15 0.15 86 1008.8
20260831083823 18 235 20.9 41.8 0.00 0.15 0.15 85 1008.7
20260831083802 17 181 17.7 41.8 0.00 0.15 0.15 85 1008.6
20260831083310 17 278 17.7 37.0 0.00 0.15 0.15 86 1008.7
20260831082327 17 225 20.9 41.8 0.00 0.15 0.15 85 1008.6
20260831082316 17 283 20.9 43.5 0.00 0.15 0.15 86 1008.5
20260831081758 17 149 16.1 43.5 0.00 0.15 0.15 86 1008.5
20260831081300 17 183 14.5 37.0 0.00 0.15 0.15 86 1008.6
20260831080318 17 198 16.1 32.2 0.00 0.18 0.15 86 1008.4
20260831075820 17 202 17.7 45.1 0.00 0.18 0.15 87 1008.5
20260831075317 17 202 19.3 49.9 0.00 0.18 0.15 87 1008.5
20260831074817 17 194 16.1 49.9 0.00 0.20 0.15 87 1008.5
20260831074320 17 203 14.5 35.4 0.00 0.23 0.15 88 1008.5
20260831073819 17 216 14.5 25.7 0.00 0.23 0.15 89 1008.5
20260831073318 17 219 14.5 27.4 0.00 0.23 0.15 89 1008.4
20260831072818 17 214 14.5 30.6 0.03 0.23 0.15 90 1008.5
20260831072317 17 177 12.9 30.6 0.05 0.23 0.15 90 1008.4
20260831071820 17 179 14.5 37.0 0.05 0.23 0.15 91 1008.5
20260831071802 16 193 14.5 37.0 0.05 0.23 0.15 91 1008.6
20260831070810 16 216 12.9 27.4 0.05 0.23 0.15 92 1008.6
20260831070309 16 229 12.9 29.0 0.05 0.23 0.15 92 1008.5
20260831065812 16 174 12.9 35.4 0.05 0.23 0.15 92 1008.6
20260831065312 16 185 14.5 35.4 0.05 0.23 0.15 92 1008.7
20260831064826 16 179 14.5 33.8 0.15 0.23 0.15 92 1008.7
20260831064811 16 153 16.1 33.8 0.15 0.23 0.15 92 1008.7
20260831063812 16 154 12.9 30.6 0.15 0.23 0.15 93 1008.7
20260831063309 16 210 11.3 27.4 0.15 0.23 0.15 92 1009.0
20260831062810 16 176 9.7 24.1 0.13 0.23 0.13 92 1008.9
20260831062310 16 174 9.7 20.9 0.10 0.20 0.10 92 1009.0
20260831061809 16 214 9.7 20.9 0.10 0.20 0.10 92 1009.0
20260831061309 16 155 8.0 16.1 0.10 0.20 0.10 91 1008.9
20260831060809 16 181 9.7 27.4 0.10 0.20 0.10 91 1009.0
20260831060313 17 163 11.3 27.4 0.10 0.20 0.10 90 1008.9
20260831055810 17 172 12.9 27.4 0.10 0.20 0.10 89 1008.8
20260831055754 17 202 14.5 27.4 0.08 0.18 0.05 88 1008.6
20260831055249 17 196 12.9 30.6 0.00 0.10 0.00 88 1008.7
20260831054753 17 204 11.3 30.6 0.00 0.10 0.00 88 1008.6
20260831053806 17 116 11.3 27.4 0.00 0.10 0.00 89 1008.6
20260831053308 17 160 9.7 27.4 0.00 0.10 0.00 89 1008.5
20260831052809 17 218 9.7 25.7 0.00 0.10 0.00 89 1008.5
20260831052307 17 193 12.9 27.4 0.00 0.13 0.00 89 1008.5
20260831051803 17 181 11.3 27.4 0.00 0.13 0.00 89 1008.6
20260831051741 17 188 12.9 24.1 0.00 0.13 0.00 90 1008.6
20260831051509 17 254 11.3 25.7 0.00 0.13 0.00 90 1008.6
20260831050309 17 181 11.3 24.1 0.00 0.13 0.00 90 1008.5
20260831050255 17 226 9.7 17.7 0.00 0.15 0.00 90 1008.5
20260831045748 17 170 11.3 25.7 0.00 0.15 0.00 90 1008.6
20260831045233 17 174 11.3 25.7 0.00 0.15 0.00 90 1008.6
20260831044303 17 164 9.7 22.5 0.00 0.15 0.00 90 1008.7
20260831043800 17 182 9.7 22.5 0.00 0.15 0.00 90 1008.7
20260831043257 17 218 9.7 25.7 0.00 0.15 0.00 90 1008.9
20260831042757 17 156 9.7 29.0 0.00 0.15 0.00 90 1008.7
20260831042257 17 205 11.3 29.0 0.00 0.15 0.00 89 1008.5
20260831041756 17 195 12.9 29.0 0.00 0.15 0.00 89 1008.5
20260831041736 17 202 14.5 29.0 0.00 0.15 0.00 89 1008.4
20260831040756 17 172 12.9 27.4 0.00 0.15 0.00 89 1008.4
20260831040256 17 186 12.9 25.7 0.00 0.15 0.00 89 1008.5
20260831035754 17 178 12.9 25.7 0.00 0.15 0.00 89 1008.4
20260831035255 17 209 11.3 22.5 0.00 0.15 0.00 89 1008.6
20260831034755 17 188 11.3 24.1 0.00 0.15 0.00 88 1008.5
20260831034254 17 209 11.3 24.1 0.00 0.15 0.00 88 1008.7
20260831033756 17 169 12.9 27.4 0.00 0.15 0.00 88 1008.6
20260831033257 17 180 11.3 27.4 0.00 0.15 0.00 88 1008.6
20260831033236 17 210 9.7 19.3 0.00 0.15 0.00 88 1008.7
20260831032256 17 187 9.7 19.3 0.00 0.15 0.00 88 1008.7
20260831031750 17 204 11.3 24.1 0.00 0.15 0.00 88 1008.7
20260831031734 17 194 11.3 24.1 0.00 0.15 0.00 88 1008.7
20260831030748 17 219 9.7 19.3 0.00 0.15 0.00 88 1008.8
20260831030733 17 219 9.7 22.5 0.00 0.15 0.00 88 1009.1
20260831030449 17 212 9.7 19.3 0.00 0.15 0.00 88 1008.9
20260831025240 17 191 9.7 22.5 0.00 0.15 0.00 88 1009.0
20260831024740 17 243 9.7 22.5 0.00 0.15 0.00 88 1009.1
20260831024239 17 203 9.7 22.5 0.00 0.18 0.00 89 1009.1
20260831023738 17 247 9.7 24.1 0.00 0.18 0.00 89 1009.1
20260831023238 17 205 11.3 24.1 0.00 0.18 0.00 89 1009.0
20260831023213 17 200 11.3 25.7 0.00 0.18 0.00 89 1009.0
20260831022238 17 218 9.7 25.7 0.00 0.18 0.00 90 1009.0
20260831021738 17 202 6.4 16.1 0.00 0.18 0.00 90 1009.0
20260831021240 17 151 6.4 12.9 0.00 0.20 0.00 90 1008.9
20260831021223 17 172 6.4 12.9 0.00 0.20 0.00 89 1008.8
20260831020712 17 187 8.0 17.7 0.00 0.20 0.00 89 1008.9
20260831015738 17 175 8.0 17.7 0.00 0.20 0.00 89 1008.9
20260831015240 17 183 8.0 17.7 0.00 0.20 0.00 89 1008.8
20260831014737 17 189 8.0 17.7 0.00 0.20 0.00 89 1008.8
20260831014725 17 179 8.0 12.9 0.00 0.20 0.00 89 1008.9
20260831013735 17 175 6.4 12.9 0.00 0.20 0.00 89 1008.9
20260831013703 17 176 6.4 14.5 0.00 0.20 0.00 88 1009.0
20260831013437 17 172 6.4 14.5 0.00 0.20 0.00 89 1009.1
20260831012230 17 192 6.4 12.9 0.00 0.20 0.00 88 1009.1
20260831011733 17 179 6.4 14.5 0.00 0.20 0.00 88 1009.1
20260831011234 17 185 6.4 14.5 0.00 0.20 0.00 88 1009.2
20260831010732 17 208 6.4 12.9 0.00 0.20 0.00 87 1009.3
20260831010232 17 191 6.4 12.9 0.00 0.20 0.00 87 1009.3
20260831005732 17 162 6.4 11.3 0.00 0.20 0.00 87 1009.3
20260831005232 17 202 6.4 11.3 0.00 0.20 0.00 87 1009.2
20260831004732 17 179 4.8 14.5 0.00 0.20 0.00 86 1009.4
20260831004234 17 186 4.8 14.5 0.00 0.20 0.00 86 1009.3
20260831003734 17 144 6.4 11.3 0.00 0.20 0.00 86 1009.3
20260831003232 17 197 6.4 14.5 0.00 0.20 0.00 86 1009.3
20260831002731 17 197 6.4 14.5 0.00 0.20 0.00 86 1009.4
20260831002719 18 230 6.4 12.9 0.00 0.20 0.00 86 1009.5
20260831001734 18 161 6.4 12.9 0.00 0.20 0.00 86 1009.5
20260831001233 18 233 6.4 12.9 0.00 0.20 0.00 86 1009.5
20260831000733 18 192 4.8 11.3 0.00 0.20 0.00 86 1009.7
20260831000229 18 156 4.8 12.9 0.00 0.20 0.00 86 1009.6
20260830235723 18 170 6.4 14.5 0.00 0.20 0.00 86 1009.6
20260830235217 18 197 6.4 14.5 0.00 0.20 0.00 85 1009.6
20260830234716 18 170 4.8 11.3 0.00 0.20 0.00 85 1009.8
20260830234213 18 198 3.2 11.3 0.00 0.20 0.00 85 1009.8
20260830233714 18 197 4.8 11.3 0.00 0.20 0.00 84 1009.8
20260830233215 18 185 4.8 11.3 0.00 0.20 0.00 84 1009.8
20260830232712 18 229 4.8 12.9 0.00 0.20 0.00 85 1009.8
20260830232215 18 196 6.4 16.1 0.00 0.20 0.00 85 1009.8
20260830232146 18 180 4.8 16.1 0.00 0.20 0.00 85 1009.8
20260830231214 18 195 6.4 16.1 0.00 0.20 0.00 86 1009.8
20260830230714 18 170 8.0 16.1 0.00 0.20 0.00 86 1009.9
20260830230651 18 166 6.4 14.5 0.00 0.20 0.00 87 1009.8
20260830225714 18 189 6.4 14.5 0.00 0.20 0.00 87 1009.8
20260830225212 18 170 4.8 14.5 0.00 0.20 0.00 88 1009.8
20260830224712 18 179 6.4 16.1 0.00 0.20 0.00 88 1009.8
20260830224659 18 199 6.4 16.1 0.00 0.20 0.00 88 1009.9
20260830223712 18 179 6.4 14.5 0.00 0.20 0.00 88 1009.8
20260830223211 18 190 6.4 14.5 0.00 0.20 0.00 88 1009.9
20260830222710 18 181 4.8 11.3 0.00 0.20 0.00 87 1009.9
20260830222206 18 175 1.6 9.7 0.00 0.20 0.00 87 1009.9
20260830221708 18 163 1.6 3.2 0.00 0.20 0.00 86 1009.9
20260830221206 18 163 1.6 6.4 0.00 0.20 0.00 86 1010.0
20260830221147 18 163 3.2 6.4 0.00 0.20 0.00 86 1010.0
20260830220643 18 137 3.2 6.4 0.00 0.20 0.00 85 1010.0
20260830215732 18 166 3.2 8.0 0.00 0.20 0.20 85 1010.0
20260830215709 18 163 3.2 8.0 0.00 0.20 0.20 85 1010.0
20260830215126 18 153 3.2 8.0 0.00 0.20 0.20 84 1010.1
20260830214204 18 162 3.2 8.0 0.00 0.20 0.20 84 1010.1
20260830213705 18 172 4.8 8.0 0.00 0.20 0.20 84 1010.2
20260830213204 18 177 4.8 8.0 0.00 0.20 0.20 84 1010.3